Regional Weather Roundup
Issued by NWS

Home | Current Version | Previous Version | Text Only | Print | Product List | Glossary Off
Versions: 1 2 3 4 5 6 7 8 9 10 11 12 13 14 15 16 17 18 19 20 21 22 23 24 25 26 27 28 29 30 31 32 33 34 35 36 37 38 39 40 41 42 43 44 45 46 47 48 49 50

000
ASUS45 KSLC 030410
RWRUT

UTAH REGIONAL WEATHER ROUNDUP
NATIONAL WEATHER SERVICE SALT LAKE CITY UT
1000 PM MDT TUE JUN 02 2015

UTZ001>011-023>025-030500-

NORTHERN UTAH

CITY           SKY/WX    TMP DP  RH WIND       PRES   REMARKS
BRIGHAM CITY   CLEAR     67  48  50 CALM      29.93R
HILL AFB       PTCLDY    65  39  37 E6        29.94S
LOGAN          CLEAR     65  51  60 N5        29.94R
OGDEN          PTCLDY    69  41  36 S3        29.92S
PROVO AIRPORT  CLEAR     70  48  46 NW13      29.91S
SALT LAKE CITY MOCLDY    69  48  47 N8        29.90S
VERNAL         PTCLDY    68  35  29 N7        29.93R
WENDOVER       CLEAR     72  39  30 N6        29.91R
HEBER CITY     PTCLDY    55  37  50 SE5       29.99R
WEST JORDAN    CLEAR     68  45  42 W7        29.94S

$$

UTZ012>022-026-027-030500-

SOUTHERN/CENTRAL UTAH

CITY           SKY/WX    TMP DP  RH WIND       PRES   REMARKS
BLANDING       CLEAR     67  20  16 CALM      30.07R
BRYCE CANYON   CLEAR     45  27  49 SW6       30.14R
CEDAR CITY     CLEAR     61  25  25 S8        30.00R
DELTA          CLEAR     73  16  11 W7        29.90R
HANKSVILLE     CLEAR     81  14   8 SW10G21   29.87R
MILFORD        CLEAR     63  27  25 S13       29.94R
MOAB/CYNLANDS  CLEAR     73  16  11 CALM      29.87R
PRICE          CLEAR     66  23  19 N9        29.97R
ST GEORGE      PTCLDY    84  23  10 W6        29.84R
KANAB          CLEAR     66  28  24 CALM      29.99R

$$

REGIONAL REPORTS     COLORADO/ARIZONA

CITY           SKY/WX    TMP DP  RH WIND       PRES   REMARKS
CRAIG, CO      CLEAR     54  38  54 CALM      30.02R
GRAND JUNCTION CLEAR     64  24  21 NE3       29.91R
RIFLE          CLEAR     61  35  37 SE5       29.98R
MONTROSE       CLEAR     67  24  19 S7        30.03R
CORTEZ         CLEAR     58  32  37 E8        30.03S
PAGE, AZ       CLEAR     84   5   5 SW8G17    29.88R
GRAND CANYON   CLEAR     48  14  25 CALM      30.12R
KINGMAN        CLEAR     73  16  11 S10       29.91R
FLAGSTAFF      CLEAR     56  22  26 CALM      30.16S

$$

REGIONAL REPORTS    NEVADA/IDAHO/WYOMING

CITY           SKY/WX    TMP DP  RH WIND       PRES   REMARKS
LAS VEGAS, NV  CLEAR     87  20   8 S12       29.73R
ELY            CLEAR     59  36  42 W6        30.00R
ELKO           CLEAR     63  32  31 NW7       29.98R
POCATELLO, ID  CLEAR     57  50  77 S7        29.98R
BURLEY         CLEAR     57  42  57 W3        29.95R
EVANSTON, WY   PTCLDY    56  37  49 W3        30.10R
ROCK SPRINGS   PTCLDY    59  34  39 W9        30.07R
KEMMERER       PTCLDY    54  32  43 W9        30.10R

$$



USA.gov is the U.S. government's official web portal to all federal, state and local government web resources and services.